Regional Weather Roundup
Issued by NWS

Home | Current Version | Previous Version | Graphics & Text | Print | Product List | Glossary On
Versions: 1 2 3 4 5 6 7 8 9 10 11 12 13 14 15 16 17 18 19 20 21 22 23 24 25 26 27 28 29 30 31 32 33 34 35 36 37 38 39 40 41 42 43 44 45 46 47 48 49 50
000
ASUS43 KMPX 171501
RWRMN
WEATHER ROUNDUP FOR MINNESOTA
NATIONAL WEATHER SERVICE TWIN CITIES/CHANHASSEN MN
900 AM CST WED DEC 17 2014


NOTE: "FAIR" INDICATES FEW OR NO CLOUDS BELOW 12,000 FEET WITH NO
SIGNIFICANT WEATHER AND/OR OBSTRUCTIONS TO VISIBILITY. N/A MEANS
CURRENT SKY AND/OR WEATHER CONDITIONS ARE NOT AVAILABLE.

MNZ060>063-068>070-171600-
   Twin Cities Metro

CITY           SKY/WX    TMP DP  RH WIND       PRES   REMARKS
TWIN CITIES    PTCLDY    11   6  81 W9        30.32S WCI  -2
ST PAUL        PTCLDY    12   7  80 W8        30.34R WCI   0
CRYSTAL        LGT SNOW  12   7  80 W8        30.32R WCI   0
LAKEVILLE      CLEAR      9   7  92 NW9       30.31S WCI  -5
EDEN PRAIRIE   PTCLDY    10   6  84 NW8       30.32R WCI  -2
SOUTH ST PAUL  PTCLDY    12   8  82 W6        30.32R WCI   3
LAKE ELMO      MOCLDY    12   9  85 NW7       30.32R WCI   2
$$
MNZ001>005-007-008-013>017-022>024-027-028-171600-
   Northwest Minnesota

CITY           SKY/WX    TMP DP  RH WIND       PRES   REMARKS
BEMIDJI        LGT SNOW   9   6  89 N5        30.28S WCI   0
HALLOCK        PTCLDY     0  -4  85 CALM      30.38R
ROSEAU         PTCLDY     1  -2  85 NE5       30.35  WCI  -8
WARROAD        PTCLDY     1  -2  85 NW3       30.34S
THIEF RVR FALL PTCLDY     3   0  85 CALM      30.33S
CROOKSTON      PTCLDY     1  -2  85 NW3       30.38S
FOSSTON        PTCLDY     0  -4  85 CALM      30.31S
DETROIT LAKES  PTCLDY     3   1  92 NW5       30.30S WCI  -6
MOORHEAD       PTCLDY     3   3 100 W5        30.37R WCI  -6
PARK RAPIDS    PTCLDY     5   2  87 NW3       30.27R
MAHNOMEN       FAIR       2  -2  86 CALM      30.31S
$$
MNZ006-009>011-018-025>026-171600-
   North Central Minnesota

CITY           SKY/WX    TMP DP  RH WIND       PRES   REMARKS
BAUDETTE       MOCLDY    10   6  84 CALM      30.31R
FLAG ISLAND    MOCLDY     7   3  85 N7        30.34R WCI  -5
INTL FALLS     PTCLDY    12   6  77 N5        30.30R WCI   4
WASKISH        CLOUDY    12  10  92 CALM      30.31R
BIG FORK       PTCLDY    10   7  85 CALM      30.28R
LONGVILLE      LGT SNOW  10   9  92 N3        30.27S
GRAND RAPIDS   PTCLDY     9   5  85 N8        30.25R WCI  -4
CRANE LAKE     PTCLDY     9   7  92 NW3       30.30S
ORR            PTCLDY     9   7  92 CALM      30.24S
COOK           FLURRIES   9   7  92 CALM      30.26S
WALKER         CLOUDY     9   6  87 CALM      30.27S
$$
MNZ012-019>021-037-171600-
   Northeast Minnesota

CITY           SKY/WX    TMP DP  RH WIND       PRES   REMARKS
DULUTH         MOCLDY    11   5  77 N9        30.21R WCI  -2
ELY            LGT SNOW   9   7  92 N5        30.23R WCI   0
HIBBING        PTCLDY    11   5  77 N7        30.24S WCI   0
EVELETH        FLURRIES  12   9  85 N7        30.25R WCI   2
DULUTH HARBOR  PTCLDY    18  10  73 N16       30.28S WCI   3
SILVER BAY     CLOUDY    16   9  73 NW7       30.20R WCI   6
GRAND MARAIS     N/A     19   9  65 VRB6G16   30.23R WCI  11
G MARAIS ARPRT LGT SNOW  10   5  79 N9        30.15R WCI  -2
$$
MNZ029>031-032-039>041-046>048-054>057-064-171600-
   West Central Minnesota

CITY           SKY/WX    TMP DP  RH WIND       PRES   REMARKS
FERGUS FALLS   PTCLDY     1  -2  85 NW7       30.39R WCI -11
WHEATON        PTCLDY     1   0  92 W5        30.39R WCI  -8
MORRIS         PTCLDY     7   1  78 NW8       30.33S WCI  -6
ALEXANDRIA     MOCLDY     4   1  88 W10       30.30R WCI -11
ELBOW LAKE     FAIR       3   0  88 NW7       30.34R WCI -10
WADENA         MOCLDY     3   1  92 CALM      30.28R
GLENWOOD       MOCLDY     3   1  92 W8        30.32R WCI -10
APPLETON       PTCLDY     9   3  78 NW3       30.36S
BENSON         MOCLDY     5   1  85 NW3       30.34S
ORTONVILLE     FLURRIES   7   1  78 NW5       30.36R WCI  -2
MADISON        PTCLDY    10   7  85 NW3       30.37R
WILLMAR        LGT SNOW   9   5  85 NW8       30.34R WCI  -4
$$
MNZ033>034-036-042>043-049>051-058-059-171600-
   Central Minnesota

CITY           SKY/WX    TMP DP  RH WIND       PRES   REMARKS
ST CLOUD       PTCLDY    11   5  77 W5        30.31R WCI   3
SAUK CENTRE    FAIR       5   1  86 W10       30.31R WCI -10
PAYNESVILLE    PTCLDY     4   2  93 SW6       30.32S WCI  -7
AITKIN         LGT SNOW  14   9  79 CALM      30.25F
PINE RIVER     FLURRIES  12   9  85 N6        30.29S WCI   3
BRAINERD       MOCLDY     9   6  88 CALM      30.28R
STAPLES        MOCLDY     7   3  85 NW7       30.28R WCI  -5
LONG PRAIRIE   FAIR       7   3  85 NW5       30.29S WCI  -2
LITTLE FALLS   MOCLDY    10   5  79 W3        30.30R
LITCHFIELD     PTCLDY     9   7  92 NW6       30.33R WCI  -1
BUFFALO        FLURRIES   9   6  84 W8        30.33R WCI  -3
MAPLE LAKE     PTCLDY    10   7  89 W7        30.33R WCI  -1
$$
MNZ037-044-045-052-053-171600-
   East Central Minnesota

CITY           SKY/WX    TMP DP  RH WIND       PRES   REMARKS
PRINCETON      PTCLDY    10   7  85 CALM      30.30R
MORA           PTCLDY    12   7  79 NW6       30.30S WCI   3
CAMBRIDGE      FLURRIES  12   7  79 W3        30.28S
RUSH CITY      PTCLDY    13  10  85 NW5       30.29S WCI   6
MOOSE LAKE     FLURRIES  10   5  79 NW3       30.25S
HINCKLEY       FAIR      12   9  85 CALM      30.28S
CLOQUET        PTCLDY    10   7  85 NW7       30.23S WCI   0
MCGREGOR       MOCLDY    12   9  85 NW3       30.27R
$$
MNZ071>073-080-081-089-090-097-098-171600-
   Southwest Minnesota

CITY           SKY/WX    TMP DP  RH WIND       PRES   REMARKS
MONTEVIDEO     PTCLDY     7   5  92 NW5       30.36S WCI  -2
GRANITE FALLS  MOCLDY     7   4  88 W9        30.37S WCI  -7
CANBY          PTCLDY     8   5  88 NW5       30.36R WCI  -1
MARSHALL       PTCLDY     5   1  85 W5        30.34R WCI  -4
REDWOOD FALLS  MOCLDY     8   4  83 NW9       30.34S WCI  -5
OLIVIA         MOCLDY    10   7  85 NW6       30.34R WCI   1
PIPESTONE      PTCLDY     7   5  92 CALM      30.28S
WINDOM         FLURRIES   9   7  92 NW7       30.30F WCI  -3
WORTHINGTON    PTCLDY     9   7  92 N5        30.31R WCI   0
JACKSON        PTCLDY    10   7  85 NW9       30.31R WCI  -2
TRACY          MOCLDY     9   6  89 NW5       30.33S WCI   0
SLAYTON        PTCLDY     9   7  91 CALM      30.31R
$$
MNZ065>067-074>077-082>085-091>093-171600-
   South Central Minnesota

CITY           SKY/WX    TMP DP  RH WIND       PRES   REMARKS
MANKATO        CLEAR      9   3  78 NW9       30.32S WCI  -5
NEW ULM        FLURRIES   9   7  92 NW8       30.33S WCI  -4
ST JAMES       FLURRIES  10   7  85 NW8       30.34S WCI  -1
FAIRMONT       PTCLDY    10   7  85 NW10      30.31S WCI  -3
GLENCOE        PTCLDY    12   9  87 W9        30.32S WCI  -1
FARIBAULT      LGT SNOW  10   7  85 W7        30.31S WCI   0
OWATONNA       FLURRIES  10   7  85 W9        30.30S WCI  -2
WASECA         LGT SNOW  12   9  85 NW9       30.32S WCI   0
ALBERT LEA     MOSUNNY   10   9  92 W5        30.29S WCI   2
$$
MNZ078>079-086>088-094>096-171600-
   Southeast Minnesota

CITY           SKY/WX    TMP DP  RH WIND       PRES   REMARKS
ROCHESTER      LGT SNOW  11   7  84 NW10      30.27R FOG     WCI  -3
RED WING       LGT SNOW  12   9  85 W7        30.31R WCI   2
STANTON        LGT SNOW  11   7  83 W9        30.31R WCI  -1
DODGE CENTER   LGT SNOW  10   9  92 NW10      30.27S WCI  -3
WINONA         CLOUDY    19  12  73 NW7       30.31R WCI  10
AUSTIN         LGT SNOW  10   7  85 NW8       30.28S WCI  -1
PRESTON        LGT SNOW  13  10  85 NW7       30.27R WCI   3
$$
ABBREVIATIONS USED IN REMARKS
   TC - TEMPERATURES IN CELSIUS
  WCI - WIND CHILL INDEX
   HX - HEAT INDEX
  VSB - VISIBILITY
$$


USA.gov is the U.S. government's official web portal to all federal, state and local government web resources and services.